{"data":{"norad_id":64087,"intl_designator":"2025-108A","name":"2025-108A","alt_names":[],"object_type":"PAYLOAD","status":"ACTIVE","operator":null,"country":"PRC","launch_date":"2025-05-21","launch_site_code":"JSC","launch_vehicle":null,"mission":null,"orbit_class":"UNKNOWN","rcs_meters":null,"size_class":null,"mass_kg":null,"dimensions":null,"purposes":[],"wikipedia_slug":null,"has_3d_model":false,"image_url":null,"decayed_at":null,"tle_current":{"epoch":"2026-09-21T22:36:31.497408Z","epoch_age_seconds":70881,"freshness":"FRESH","line1":"1 64087U 25108A   26264.94203122  .00002936  00000+0  15214-3 0  9999","line2":"2 64087  97.4692 338.2597 0002070   0.7250 359.3986 15.16965737 73984","mean_motion":15.16965737,"eccentricity":0.000207,"inclination_deg":97.4692,"raan_deg":338.2597,"arg_perigee_deg":0.725,"mean_anomaly_deg":359.3986,"bstar":0.00015214,"rev_number":7398,"period_min":94.926336493782,"perigee_km":513.59031311956,"apogee_km":516.44407895672,"semimajor_km":6893.1541960381,"source":"CELESTRAK","updated_at":"2026-09-22T09:00:29.531994Z"}}}